Location: Sobotiste
(48.7170°N, 17.4000°E)
Time: 09:50:39
(UTC+02:00)

YUBILEINY - Pass Details

Date: 20 March 2026
Orbit: 1477 x 1509 km, 82.5° (Epoch: 17 April)

Event Time Altitude Azimuth Distance (km) Brightness Sun altitude
Rises 01:43:01 0° 351° (N) 4,620 ? -36.5°
Reaches altitude 10° 01:46:04 10° 357° (N) 3,634 ? -36.2°
Maximum altitude 01:54:30 50° 71° (ENE) 1,831 ? -35.4°
Enters shadow 02:00:31 20° 138° (SE) 2,905 ? -34.8°
